Погода Красные Баки

Погода Красные Баки : погода сейчас, прогноз погоды и архив. Всё, что Вы хотите узнать о погоде Красные Баки!

Хотите узнать прогноз погоды Красные Баки? Тогда Вам сюда: Погода Красные Баки

Поиск расширенной информации на нашем сайте:

Другие новости

Новости СМИ2

Главная страница сайта

Новости сайта

03.07.2017

Напоминаем, что на нашем специализированном сайте Метеоцентр.Азия вы можете получить высокодетализированные автоматические прогнозы погоды по пунктам России, СНГ и мира в авиационном формате (включающие направление и скорость ветра, видимость, явления погоды, количество и форму облачности, нижнюю и верхнюю границу облачности).


Погода Красные Баки - сегодня

Время (UTC), дата Ветер
(°,м/с) 
Видим.   Явления Облачность Т
(°С)
Тd
(°С)
f(%) Тe
(°С)
Pmin
(гПа)
dP
(гПа)
Po
(мм)
O2
(г/м3)
Тmin Tmax R s Состояние
почвы
21 15.09.18 тихо () -0{02}  10 км    ясно 
+7.1 +5.8 91 +7  1020.4  -0.3  755  296           
03 16.09.18 тихо () -0{01}  20000 м    8/0 верхняя 
[Ci]
+4.1 +3.2 94 +4  1018.2  -1.5  753  298  +3.9        влажная 
15 16.09.18 150 (ЮВ) 2-3{08}  20000 м    10/0 средняя 
[Ac trans]
+19.4 +11.7 61 +24  1008.1  -2.1  746  279    +23  0.0     
03 17.09.18 300 (СЗ) 3-5{06}  20000 м    10/10 1000 м 
[Sc]
+14.1 +12.3 89 +19  1006  1.1  745  283  +11.8        влажная 
15 17.09.18 320 (СЗ) 2-4{09}  20000 м    3/0 средняя 
[Ac trans]
+13.1 +5.9 62 +14  1014  1.5  751  288    +14.6  0.3     
18 17.09.18 280 (З) 1-3{04}  10 км    ясно 
+7.7 +4.8 82 +9  1015.4  1.1  751  294           
21 17.09.18 тихо () -0{03}  10 км    ясно 
+4 +3 93 +4  1015.7  0.1  752  298           
03 18.09.18 160 (Ю) 1-1{02}  20000 м    8/0 средняя 
[Ac trans]
+3.2 +2.2 93 +4  1013.2  -1.8  750  298  +2.8        влажная 
15 18.09.18 210 (ЮЗ) 2-5{07}  20000 м  в посл. час ливневой дождь  10/6 1000 м средняя 
[Sc|As op]
+11.4 +9.5 88 +13  1005.3  -1.3  745  286    +11.4  0.0     
03 19.09.18 300 (СЗ) 4-8{09}  20000 м    10/10 1000 м 
[Sc]
+8.1 +5.9 86 +7  1009  747  291  +8      влажная 
15 19.09.18 290 (З) 2-4{09}  20000 м    8/0 средняя 
[Ac trans]
+11.1 +6.8 75 +11  1011.1  0.8  748  289    +14.8       
03 20.09.18 260 (З) 1-2{04}  20000 м    10/0 средняя 
[Ac trans]
+10.2 +9 92 +11  1011  -0.5  748  289  +9.8        влажная 
15 20.09.18 300 (СЗ) 2-4{06}  10 км    10/10 1000 м 
[Sc]
+15.2 +12.5 84 +21  1009.9  748  283    +15.4  0.0     
03 21.09.18 300 (СЗ) 2-4{04}  20000 м    4/0 средняя 
[Ac trans]
+12.3 +11.5 95 +16  1014.7  1.3  751  287  +12.2    0.4    влажная 
15 21.09.18 250 (З) 1-2{08}  20000 м    3/0 верхняя 
[Ci fib]
+20 +14.3 70 +27  1016.6  0.6  753  280    +22.8       
03 22.09.18 190 (Ю) 2-2{05}  20000 м    10/0 средняя, верхняя 
[Ac trans|Cs]
+14.7 +12.5 87 +20  1018.5  0.1  754  286  +14.6        влажная 
15 22.09.18 200 (Ю) 2-3{07}  20000 м    3/0 верхняя 
[Ci fib]
+20.5 +12.7 61 +25  1015.7  -1  752  279    +24.6       
18 22.09.18 190 (Ю) 2-3{03}  10 км    ясно 
+16.1 +11.9 76 +21  1015.3  -0.5  752  284           
21 22.09.18 190 (Ю) 1-2{03}  10 км    ясно 
+12.5 +11 91 +16  1014.5  -1  751  287           
03 23.09.18 160 (Ю) 2-3{04}  20000 м    4/0 верхняя 
[Ci fib]
+10.8 +10 95 +12  1012.7  -1.2  750  289  +10.7        влажная 
15 23.09.18 180 (Ю) 3-7{12}  20000 м    8/0 средняя 
[Ac trans]
+20.9 +8.4 45 +21  1004.9  -1.9  744  277    +24       
03 24.09.18 300 (СЗ) 2-4{05}  10 км  слаб. дождь  10/10 600 м 
[Ns]
+9.3 +8.5 95 +9  1008.5  0.7  746  289  +9.2      мокрая 
15 24.09.18 150 (ЮВ) 1-3{06}  20000 м    10/0 средняя 
[Ac trans]
+11.3 +8.6 83 +12  1011.1  0.2  748  288    +13.9       
03 25.09.18 160 (Ю) 4-8{09}  10 км  в посл. час дождь  10/10 600 м 
[Sc]
+9.1 +7.7 91 +8  1003  -3  742  288  +9    0.5    влажная 
15 25.09.18 230 (ЮЗ) 3-6{09}  20000 м  {дождь}  9/9 1000 м 
[Sc]
+8.9 +6.7 86 +8  1001.5  1.3  741  288    +10.6  11     
Время (UTC), дата Ветер
(°,м/с) 
Видим.   Явления Облачность Т
(°С)
Тd
(°С)
f(%) Тe
(°С)
Pmin
(гПа)
dP
(гПа)
Po
(мм)
O2
(г/м3)
Тmin Tmax R s Состояние
почвы

Для получения пояснительной информации подведите курсор к названию столбца.

ПОГОДА Красные Баки - архив

Всё, что Вы хотите узнать о погоде Красные Баки - удобно и подробно!

Выберите нужную дату (начиная с 1 января 2015* года) и нажмите кнопку "Найти".
Будут отображены архивные сводки погоды по пункту Красные Баки, начиная с указанной даты.


Отображать данные в формате CSV (для использования в таблицах Excel)


Внимание! Наш архив погоды предназначен исключительно для личного некоммерческого использования в познавательных целях. Если Вам необходимы официальные справки о состоянии погоды (для производственных, юридических, коммерческих и т.п. целей), обращайтесь в органы Росгидромета.

*Примечание: данная дата относится к архиву по метеостанциям СССР (Россия, СНГ, Балтия).
Архив по метеостанциям Зарубежной Европы и Азии (кроме Китая) хранится 10 дней, по другим регионам земного шара (Китай, Африка, Америка, Австралия, Океания) - 1 день.

Красные Баки - район местоположения метеостанции


Название, широта, долгота, высота метеостанции:
Красные Баки 57.1°ш. 45.2°д. 110 м над ур. моря [Российская Федерация]

Дополнительная информация

В oтличие oт бoльшинства пoгoдных сайтoв мы публикуем пoдрoбную метеoинфoрмацию в детальнoм прoфессиoнальнoм фoрмате.

Характеристики температуры и влажнoсти вoздуха измеряются на высoте 2 м в тени вдали oт зданий и деревьев.
Скoрoсть ветра измеряется на высoте 10 м (на урoвне рoста челoвека скoрoсть ветра ниже в 1.5-2 раза). Если метеoстанция нахoдится в гoрoде или в лесу, тo скoрoсть ветра занижена на 2-4 м/с пo сравнению с oткрытым местoм. Скoрoсть ветра над акватoриями крупных рек и oзёр, а также на вершинах хoлмoв на 2-5 м/с выше, чем в oбычных услoвиях.
Атмoсфернoе давление в разных тoчках местнoсти мoжет значительнo oтличаться oт давления на метеoстанции, в зависимoсти oт услoвий рельефа (при пoдъёме на 10 м давление пoнижается примернo на 1 мм рт.ст.).